Tracking 29892 objects as of 21-Nov-2024
HD Live streaming from Space Station
objects crossing your sky now

STARLINK-31999

Track STARLINK-31999 now!
10-day predictions
STARLINK-31999 is classified as:


NORAD ID: 60101
Int'l Code: 2024-117L
Perigee: 482.1 km
Apogee: 482.7 km
Inclination: 53.2 °
Period: 94.1 minutes
Semi major axis: 6853 km
RCS: Unknown
Launch date: June 23, 2024
Source: United States (US)
Launch site: AIR FORCE EASTERN TEST RANGE (AFETR)
Your satellite tracking list
Your tracking list is empty




NASA's NSSDC Master Catalog

Two Line Element Set (TLE):
1 60101U 24117L   24325.83667599 -.00004540  00000-0 -14136-3 0  9995
2 60101  53.1600  78.3951 0000418 111.2543 248.8502 15.30179786 24280
Source of the keplerian elements: AFSPC